Location: Go�ngahuizen
(53.0821°N, 5.8849°E)
Time: 13:54:15
(UTC+00:00)

Cosmos 2333 Rocket - Pass Details

Date: 09 April 2020
Orbit: 841 x 861 km, 70.8° (Epoch: 02 June)

Event Time Altitude Azimuth Distance (km) Brightness Sun altitude
Rises 21:49:23 0° 324° (NW) 3,408 6.7 -24.7°
Reaches altitude 10° 21:52:30 10° 341° (NNW) 2,471 5.6 -24.9°
Maximum altitude 21:56:41 21° 29° (NNE) 1,832 4.3 -25.2°
Enters shadow 22:00:33 11° 75° (ENE) 2,390 4.4 -25.5°
